Regional Weather Roundup
Issued by NWS Wakefield, VA

Home | Current Version | Previous Version | Graphics & Text | Print | Product List | Glossary Off
Versions: 1 2 3 4 5 6 7 8 9 10 11 12 13 14 15 16 17 18 19 20 21 22 23 24 25 26 27 28 29 30 31 32 33 34 35 36 37 38 39 40 41 42 43 44 45 46 47 48 49 50

000
ASUS41 KAKQ 221710
RWRAKQ

REGIONAL WEATHER ROUNDUP
NATIONAL WEATHER SERVICE WAKEFIELD VA
100 PM EDT TUE JUL 22 2014

Note: "fair" indicates few or no clouds below 12,000 feet with no
significant weather and/or obstructions to visibility. * = Denotes
station may not report precipitation (e.g., rain,snow,etc.),
thunder or fog.

VAZ042-051-052>054-056-221800-
NORTHERN VIRGINIA

CITY           SKY/WX    TMP DP  RH WIND       PRES   REMARKS
WASH NATIONAL  PTSUNNY   84  68  58 S9        30.16F
DULLES         PTSUNNY   80  69  69 S10       30.17S
FORT BELVOIR   DRIZZLE   83  71  67 VRB7      30.17F
QUANTICO       PTSUNNY   81  69  67 SW6       30.17F
FREDERICKSBRG* CLOUDY    82  71  69 CALM      30.16F
STAFFORD*      CLOUDY    81  73  76 S3        30.21F
WARRENTON      PTSUNNY   85  77  77 SE7       30.16F HX  95
CULPEPER*      MOSUNNY  N/A N/A N/A S6        30.16F
MANASSAS*      CLOUDY    81  72  74 S8        30.17F
LEESBURG*      CLOUDY    82  72  69 S8        30.18S
WINCHESTER     PTSUNNY   82  68  61 SE9       30.15F
$$

VAZ048-049-060>072-079>083-221800-
CENTRAL AND SOUTH CENTRAL VIRGINIA...AND NORTH CENTRAL NORTH CAROLINA

CITY           SKY/WX    TMP DP  RH WIND       PRES   REMARKS
RICHMOND       CLOUDY    86  66  51 E8        30.16F
CHESTERFIELD*  CLOUDY    82  63  51 CALM      30.18F
HANOVER        PTSUNNY   85  65  51 CALM      30.17F
TAPPAHANNOCK*  MOSUNNY   86  60  41 E6        30.17F
CHARLOTTSVILLE CLOUDY    82  70  66 S3        30.16F
ORANGE*        PTSUNNY   81  70  69 SE5       30.18F
LOUISA*        MOSUNNY   81  72  74 SE8       30.16F
FARMVILLE*     PTSUNNY   82  66  57 SE3       30.15F
SOUTH HILL*    PTSUNNY   82  72  69 CALM      30.22S
ROANOKE RAPIDS PTSUNNY   86  72  62 E5        30.15F
RALEIGH        CLOUDY    79  71  76 N5        30.16F
$$

VAZ088>098-221800-
SOUTHEAST VIRGINIA

CITY           SKY/WX    TMP DP  RH WIND       PRES   REMARKS
NORFOLK        PTSUNNY   81  71  71 NE10      30.16F
VIRGINIA BEACH PTSUNNY   79  71  76 E10       30.16F
NORFOLK NAVAL  PTSUNNY   83  72  69 E14       30.18F
WEST POINT*    PTSUNNY   85  67  53 S5        30.18S
NEWPORT NEWS   MOSUNNY   86  69  56 E12       30.17F
LANGLEY AFB    MOSUNNY   82  71  68 E10       30.16F
FORT EUSTIS    MOSUNNY   84  72  67 E8        30.15F
WILLIAMSBURG*  MOSUNNY   86  72  62 SE5       30.17F
FRANKLIN*      PTSUNNY   84  70  61 E7        30.15F
WAKEFIELD      PTSUNNY   84  69  60 MISG      30.16F
$$

VAZ020-022-025-037-045-221800-
WESTERN AND SOUTHWEST VIRGINIA

CITY           SKY/WX    TMP DP  RH WIND       PRES   REMARKS
STAUNTON*      MOSUNNY   82  67  59 SE8       30.19F
HOT SPRINGS VA PTSUNNY   71  61  69 S6        30.32F
LYNCHBURG      PTSUNNY   83  67  58 S6        30.19F
DANVILLE       PTSUNNY   83  69  62 VRB5      30.17F
MARTINSVILLE   PTSUNNY   85  69  60 NE3       30.20F
ROANOKE        CLOUDY    81  66  60 S6        30.20F
BLACKSBURG     CLOUDY    79  70  73 CALM      30.25S
DUBLIN*        CLOUDY    80  68  68 CALM      30.24S
MARION*        CLOUDY    78  69  71 E6        30.26S
HILLSVILLE*    CLOUDY    74  64  71 CALM      30.26F
RICHLANDS*     MOSUNNY   83  65  54 SE3       30.23F
WISE*          MOSUNNY   81  61  50 E5        30.23F
ABINGDON*      PTSUNNY   82  63  53 E5        30.20F
$$

MDZ021>025-VAZ099-100-221800-
SOUTHERN MARYLAND AND THE DELMARVA PENINSULA

CITY           SKY/WX    TMP DP  RH WIND       PRES   REMARKS
PATUXENT RIVER PTSUNNY   81  66  60 SE9       30.17F
BAY BRIDGE APT   N/A     82  66  57 SW8       30.17S
LEONARDTOWN      N/A     81  64  57 MISG        N/A
DOVER          MOSUNNY   83  67  60 SE8       30.15F
GEORGETOWN     SUNNY     82  61  48 SE9G20    30.18S
EASTON         MOSUNNY   86  66  51 S9        30.20F
CAMBRIDGE      SUNNY     84  61  45 S6        30.16F
SALISBURY      NOT AVBL
OCEAN CITY     SUNNY     76  68  76 VRB5      30.19S
WALLOPS ISLAND SUNNY     82  63  52 VRB6      30.19S
ACCOMACK*        N/A     81  64  57 E6        30.17F
$$

NCZ012>017-030>032-221800-
EASTERN NORTH CAROLINA

CITY           SKY/WX    TMP DP  RH WIND       PRES   REMARKS
ELIZABETH CITY PTSUNNY   82  73  74 E12       30.15F
AHOSKIE*       PTSUNNY   81  71  73 NE5       30.15S
EDENTON*       PTSUNNY   83  74  75 E12       30.14F
CURRITUCK*     PTSUNNY   83  70  64 E7        30.16F
KILL DEVIL HLS PTSUNNY   82  74  77 E6        30.13F
MANTEO         NOT AVBL
CAPE HATTERAS  CLOUDY    82  75  79 S12       30.15F
GOLDSBORO      PTSUNNY   84  77  79 NE6       30.11F
WASHINGTON     PTSUNNY   83  74  73 E6        30.12F
GREENVILLE     LGT RAIN  81  75  83 NE5       30.14F
NEW BERN       CLOUDY    86  74  67 SE9       30.13F
WILMINGTON     RAIN      79  75  87 NE5       30.12S FOG
$$

VAZ048-221800-
ELSEWHERE

CITY           SKY/WX    TMP DP  RH WIND       PRES   REMARKS
HARRISBURG PA  PTSUNNY   85  71  63 SW10      30.14F
BALTIMORE      PTSUNNY   81  69  67 S5        30.16S
ANNAPOLIS      CLOUDY    81  63  54 S9        30.17S
ANDREWS AFB    PTSUNNY   81  71  70 S9        30.16F
WILMINGTON DE  PTSUNNY   84  70  62 S13       30.16F
PHILADELPHIA   MOSUNNY   84  63  49 SW8       30.15F
WILDWOOD NJ*   SUNNY     81  61  50 S10       30.19S
ATLANTIC CITY  SUNNY     82  66  58 SE7       30.16F
HENDERSON NC   CLOUDY    82  67  61 E5        30.17F
GREENSBORO     PTSUNNY   79  70  74 SE3       30.17F
ROCKY MOUNT    CLOUDY    84  72  67 NE5       30.14S
FAYETTEVILLE   CLOUDY    84  73  69 VRB5      30.13F
CHARLOTTE      CLOUDY    80  70  71 VRB6      30.17F
$$

VAZ100-221800-
MARINE

STATION/POSITION TIME  TEMP    WIND        PRES    WAVE   SWELL
                       AIR SEA DIR/SP/G            HT/PER HT/PER
                 (UTC) (F)     (DEG/KT/KT) (MB)    (FT/S) (FT/S)
44066 TX TWR #4  1700   72 74  230/  6/  8 1021.5F   2/ 8   2/ 8
CAPE MAY NJ      1700   76 76  180/  9/ 11 1021.7F
LEWES DE         1700   79 72  160/  7/ 12 1021.6S
15NM E FENWICK I 1700   74 76              1022.2F   2/ 8
OCEAN-CITY-INLET 1700   75 74  110/  4/  5 1021.9R
WACHAPREAGUE VA  1700   76 79   70/  7/ 10 1021.9R
THOMAS POINT MD  1700   78 79  190/  6/  6 1022.1F
GOOSES REEF MD   1700   79     200/ 12/ 14 1022.0F
COVE POINT MD    1700   77     190/  8/ 10 1021.6F
SOLOMONS ISLAND  1700      81                N/A
BISHOPS HEAD MD  1700   78 79  170/  6/  7 1021.5F
PINEY POINT MD   1700          160/ 11/ 13   N/A
POTOMAC MD       1700   77     140/  8/ 10 1021.2S
CAMBRIDGE MD     1700   83 80  160/  4/  7 1021.2F
LEWISETTA VA     1700   77 80  100/ 11/ 12 1021.5S
RAPPAHANNOCK LGT 1700           90/  6/  7 1022.2S
YORK RVR RNG VA  1700   78     120/  8/  9 1021.2F
YORKTOWN VA      1700   78 80   90/ 10/ 12 1021.4F
JAMESTOWN VA     1700   79     110/  6/ 10   N/A
DOMINION TERM VA 1700   77      60/ 13/ 17 1021.8S
KIPTOPEKE VA     1700      80  130/  8/ 12   N/A
CHES BAY BRIDGE  1700   76 78   70/ 10/ 12 1021.2F
CAPE HENRY VA    1700   76      80/ 11/ 12 1020.7F
WILLOUBY STN VA  1700           80/ 12/ 13 1021.0S
S CRANEY ISL VA  1700           20/  9/ 11 1021.2F
CAPE HENRY BUOY  1700      76                N/A     2/ 6
1ST LANDING BUOY 1700   77      90/  8/ 10 1021.5F
CAPE CHARLES BUO 1700      75                N/A     2/ 8
OFFSHORE WE BUOY 1700      77                N/A     3/ 6
64NM E OF VA BCH 1700   77 78   70/ 10/ 12 1021.0F   3/ 7   2/ 7
DUCK PIER NC     1700   77 75   60/  9/ 10 1020.5F
44056 DUCK FRF   1700                        N/A     2/ 7
OREGON INLET NC  1700   80 77  140/  5/  8 1020.9F
HATTERAS NC      1700   81 81  160/ 11/ 13 1021.4F
DIAMOND SHLS NC  1700          VRB 14/ 16  1020.9F   4/ 7   2/ 7
CAPE LOOKOUT NC  1600   78     160/ 13/ 15 1020.9R
$$


USA.gov is the U.S. government's official web portal to all federal, state and local government web resources and services.